STARLINK-34221 (64453 NORAD) Tracking and Keplerian Element Data

This shows tracking and keplerian element data for the satellite.

Feedback or suggestion? Click here.




ElementValue
Catalog64453
NameSTARLINK-34221
Epoch Orbit2839
Epoch Day353.29725986
Epoch Year2025
RAAN102.0235
Inclination53.1605
Eccentricity0.0001333
Argument of Perigee85.7223
Mean Anonmoly274.393
Mean Motion15.30178485
Decay Rate9.749E-05
L11 64453U 25130R 25353.29725986 .00009749 00000+0 34109-3 0 9997
L22 64453 53.1605 102.0235 0001333 85.7223 274.3930 15.30178485 28396



Live tracking and technical data element details for STARLINK-34221 (NORAD 64453). STARLINK-34221 can be tracked NOW for your location showing map with azimuth and elevation plus other details from your city location.







IsCatalogInMostPopularTable: catalog: 64453, numindb: 4
Update: records affected: 1



GetName: 64453 STARLINK-34221

Hit Count: updated at: Sun, 08 Feb 2026 09:00:24 GMT